Overview Statistics Trail Chart Weather Telemetry Raw packets
 

This is the latest recevied weather packets stored in our database for station/object N5PUP-13. If no packets are shown the sender has not sent any weather packets the latest 10 day(s).

<< 104 105 106 107 108 109 110 >>
Time Temp. Humidity Pressure Rain* Wind** Luminosity Snow
1787786700 35° C 36% 1015.7 hPa 0 mm - - -
1787786400 35° C 37% 1015.8 hPa 0 mm - - -
1787786100 35° C 36% 1015.7 hPa 0 mm - - -
1787785800 35° C 36% 1015.7 hPa 0 mm - - -
1787785500 35° C 35% 1015.8 hPa 0 mm - - -
1787785200 35° C 36% 1015.9 hPa 0 mm - - -
1787784900 35° C 36% 1015.9 hPa 0 mm - - -
1787784600 35° C 35% 1015.9 hPa 0 mm - - -
1787784300 35.56° C 36% 1016.1 hPa 0 mm - - -
1787784000 35° C 36% 1016.2 hPa 0 mm - - -
1787783700 35.56° C 36% 1016.3 hPa 0 mm - - -
1787783400 35° C 37% 1016.2 hPa 0 mm - - -
1787783100 35.56° C 36% 1016.4 hPa 0 mm - - -
1787782800 35.56° C 35% 1016.4 hPa 0 mm - - -
1787782500 35.56° C 37% 1016.4 hPa 0 mm - - -
1787782200 35° C 36% 1016.4 hPa 0 mm - - -
1787781900 34.44° C 37% 1016.5 hPa 0 mm - - -
1787781600 35.56° C 36% 1016.5 hPa 0 mm - - -
1787781300 35° C 36% 1016.6 hPa 0 mm - - -
1787781000 35.56° C 36% 1016.6 hPa 0 mm - - -
1787780700 35° C 37% 1016.7 hPa 0 mm - - -
1787780400 36.67° C 35% 1016.8 hPa 0 mm - - -
1787780103 36.11° C 35% 1016.8 hPa 0 mm - - -
1787779800 35.56° C 37% 1016.9 hPa 0 mm - - -
1787779500 36.11° C 35% 1017 hPa 0 mm - - -

* Rain latest hour (hover to see other rain measurements)
** Current wind speed in m/s (hover to see current wind gust speed)